| time (UTC) | temp C | wind direction | speed KPH | gust KPH | rain 1hr cm | rain 24hr cm | rain mn cm | humidity % | barometer mb |
| 20260505031554 | 4 | 227 | 12.9 | 24.1 | 0.00 | 0.00 | 0.00 | 92 | 1008.0 |
| 20260505030114 | 4 | 240 | 12.9 | 22.5 | 0.00 | 0.00 | 0.00 | 92 | 1007.8 |
| 20260505024608 | 4 | 242 | 11.3 | 24.1 | 0.00 | 0.03 | 0.00 | 92 | 1007.7 |
| 20260505023052 | 4 | 255 | 16.1 | 27.4 | 0.00 | 0.03 | 0.00 | 92 | 1007.7 |
| 20260505021558 | 4 | 248 | 16.1 | 25.7 | 0.00 | 0.03 | 0.00 | 92 | 1007.4 |
| 20260505020108 | 4 | 241 | 16.1 | 25.7 | 0.00 | 0.03 | 0.00 | 92 | 1007.3 |
| 20260505014603 | 4 | 227 | 9.7 | 30.6 | 0.00 | 0.10 | 0.00 | 92 | 1007.2 |
| 20260505013058 | 4 | 248 | 16.1 | 27.4 | 0.00 | 0.10 | 0.00 | 91 | 1007.1 |
| 20260505011601 | 5 | 279 | 12.9 | 25.7 | 0.00 | 0.10 | 0.00 | 91 | 1007.0 |
| 20260505010112 | 5 | 226 | 11.3 | 22.5 | 0.00 | 0.10 | 0.00 | 90 | 1006.9 |
| 20260505004629 | 5 | 288 | 11.3 | 25.7 | 0.00 | 0.13 | 0.00 | 90 | 1006.9 |
| 20260505003100 | 5 | 263 | 9.7 | 30.6 | 0.00 | 0.13 | 0.00 | 91 | 1006.9 |
| 20260505001555 | 5 | 216 | 12.9 | 27.4 | 0.00 | 0.13 | 0.00 | 89 | 1006.8 |
| 20260505000113 | 5 | 244 | 16.1 | 27.4 | 0.00 | 0.13 | 0.00 | 89 | 1006.4 |
| 20260504234554 | 5 | 237 | 12.9 | 25.7 | 0.00 | 0.18 | 0.00 | 88 | 1006.0 |
| 20260504233053 | 5 | 234 | 14.5 | 27.4 | 0.00 | 0.18 | 0.00 | 87 | 1005.8 |
| 20260504231621 | 5 | 252 | 20.9 | 33.8 | 0.00 | 0.18 | 0.00 | 86 | 1005.9 |
| 20260504230054 | 6 | 241 | 20.9 | 41.8 | 0.00 | 0.18 | 0.00 | 85 | 1005.8 |
| 20260504224613 | 6 | 170 | 24.1 | 45.1 | 0.00 | 0.28 | 0.00 | 85 | 1005.6 |
| 20260504223057 | 6 | 225 | 29.0 | 48.3 | 0.00 | 0.28 | 0.00 | 83 | 1005.3 |
| 20260504221641 | 6 | 235 | 27.4 | 46.7 | 0.00 | 0.28 | 0.00 | 82 | 1005.1 |
| 20260504220056 | 6 | 241 | 27.4 | 45.1 | 0.00 | 0.28 | 0.00 | 81 | 1005.1 |
| 20260504214554 | 7 | 279 | 32.2 | 48.3 | 0.00 | 0.48 | 0.00 | 79 | 1005.0 |
| 20260504213101 | 7 | 210 | 32.2 | 56.3 | 0.00 | 0.48 | 0.00 | 79 | 1004.8 |
| 20260504211554 | 7 | 235 | 27.4 | 61.2 | 0.00 | 0.48 | 0.00 | 77 | 1004.7 |
| 20260504210058 | 7 | 224 | 29.0 | 61.2 | 0.00 | 0.48 | 0.00 | 75 | 1004.4 |
| 20260504204554 | 8 | 158 | 32.2 | 62.8 | 0.00 | 0.89 | 0.00 | 72 | 1004.3 |
| 20260504203053 | 8 | 229 | 33.8 | 57.9 | 0.00 | 0.89 | 0.00 | 71 | 1004.0 |
| 20260504201555 | 7 | 233 | 35.4 | 56.3 | 0.00 | 0.89 | 0.00 | 71 | 1003.7 |
| 20260504200056 | 7 | 25 | 32.2 | 64.4 | 0.00 | 0.89 | 0.00 | 73 | 1003.5 |
| 20260504194602 | 8 | 293 | 35.4 | 61.2 | 0.00 | 1.27 | 0.00 | 72 | 1003.3 |
| 20260504193055 | 8 | 215 | 35.4 | 53.1 | 0.00 | 1.27 | 0.00 | 69 | 1003.3 |
| 20260504191615 | 10 | 239 | 22.5 | 41.8 | 0.00 | 1.27 | 0.00 | 62 | 1002.9 |
| 20260504190058 | 11 | 214 | 33.8 | 54.7 | 0.00 | 1.27 | 0.00 | 57 | 1002.9 |
| 20260504184603 | 13 | 275 | 29.0 | 57.9 | 0.00 | 1.52 | 0.00 | 39 | 1002.6 |
| 20260504183100 | 12 | 244 | 29.0 | 51.5 | 0.00 | 1.52 | 0.00 | 40 | 1002.6 |
| 20260504181555 | 12 | 264 | 30.6 | 51.5 | 0.00 | 1.52 | 0.00 | 43 | 1002.6 |
| 20260504180054 | 12 | 292 | 25.7 | 49.9 | 0.00 | 1.52 | 0.00 | 47 | 1002.5 |
| 20260504174553 | 12 | 281 | 22.5 | 59.5 | 0.00 | 1.57 | 0.00 | 52 | 1002.2 |
| 20260504173055 | 12 | 175 | 25.7 | 45.1 | 0.00 | 1.57 | 0.00 | 53 | 1002.0 |
| 20260504171556 | 11 | 230 | 25.7 | 51.5 | 0.00 | 1.57 | 0.00 | 52 | 1001.8 |
| 20260504170107 | 12 | 312 | 27.4 | 46.7 | 0.00 | 1.57 | 0.00 | 54 | 1001.7 |
| 20260504140104 | 6 | 232 | 27.4 | 48.3 | 0.00 | 1.57 | 0.00 | 84 | 1000.6 |
| 20260504081555 | 2 | 283 | 29.0 | 49.9 | 0.00 | 1.57 | 0.00 | 91 | 990.3 |
| 20260504060105 | 2 | 271 | 22.5 | 53.1 | 0.00 | 1.57 | 0.00 | 92 | 985.1 |
| 20260504050123 | 2 | 289 | 24.1 | 48.3 | 0.00 | 1.57 | 0.00 | 92 | 983.1 |
| 20260504044555 | 2 | 270 | 20.9 | 49.9 | 0.00 | 1.57 | 0.00 | 92 | 982.5 |
| 20260504043101 | 2 | 302 | 20.9 | 41.8 | 0.00 | 1.57 | 0.00 | 92 | 982.0 |
| 20260504041559 | 3 | 276 | 19.3 | 38.6 | 0.00 | 1.57 | 0.00 | 92 | 981.4 |
| 20260504040113 | 3 | 250 | 19.3 | 40.2 | 0.00 | 1.57 | 0.00 | 92 | 981.0 |
| 20260504034611 | 3 | 227 | 14.5 | 32.2 | 0.00 | 1.57 | 0.00 | 92 | 980.1 |
| 20260504033059 | 3 | 260 | 16.1 | 32.2 | 0.00 | 1.57 | 0.00 | 93 | 979.4 |